Total_Precipitation_Accumulation
0.43 0.42 0.43 0.43 0.36 0.32 0.42 0.54 0.83 1.14 1.49 1.80 1.87 1.88 1.93 2.06 2.01 1.78 1.61 1.44 1.30 1.30 1.37 1.34 1.31 1.29 1.32 1.46 1.53 1.75 1.81 1.75 1.73 1.69 1.64 1.63 1.55 1.39 1.24 1.12 1.07 1.13 1.06 1.01
0.43 0.37 0.45 0.44 0.44 0.45 0.53 0.64 0.86 1.20 1.66 1.87 1.87 1.82 1.88 1.98 1.97 1.78 1.48 1.32 1.25 1.26 1.35 1.30 1.26 1.22 1.18 1.29 1.34 1.48 1.62 1.62 1.54 1.51 1.55 1.51 1.49 1.37 1.26 1.16 1.11 1.11 1.06 0.96
0.63 0.41 0.62 0.90 0.69 0.70 0.79 0.82 1.01 1.40 1.61 1.67 1.76 1.78 1.81 1.92 2.01 1.90 1.63 1.51 1.53 1.55 1.54 1.42 1.31 1.24 1.26 1.32 1.36 1.43 1.49 1.43 1.43 1.44 1.40 1.37 1.24 1.16 1.19 1.22 1.13 1.06 0.97 0.86
0.63 0.78 1.26 1.14 0.64 0.71 0.86 0.88 0.92 1.05 1.19 1.35 1.47 1.56 1.71 1.88 2.03 2.01 1.89 1.84 1.85 1.79 1.64 1.49 1.37 1.34 1.34 1.32 1.38 1.46 1.43 1.35 1.30 1.31 1.27 1.23 1.20 1.14 1.14 1.14 1.08 1.04 0.95 0.84
0.86 1.17 1.38 1.11 0.67 0.64 0.95 1.13 0.89 0.89 0.92 0.96 0.99 1.17 1.58 1.74 1.81 1.86 1.88 1.85 1.75 1.67 1.57 1.46 1.35 1.31 1.26 1.26 1.25 1.26 1.22 1.18 1.10 1.13 1.19 1.20 1.17 1.19 1.15 1.07 1.02 0.96 0.90 0.85
0.97 1.31 1.61 1.35 0.64 0.45 0.81 1.50 1.04 0.89 0.93 0.97 1.09 1.36 1.45 1.36 1.37 1.43 1.46 1.50 1.53 1.51 1.42 1.33 1.25 1.16 1.13 1.15 1.14 1.11 1.10 1.09 0.99 1.00 1.07 1.14 1.15 1.15 1.05 0.97 0.92 0.82 0.80 0.83
0.99 1.29 1.47 0.84 0.49 0.64 1.37 1.76 1.17 0.98 1.00 1.12 1.25 1.26 1.04 0.97 1.04 1.13 1.24 1.29 1.31 1.41 1.43 1.26 1.07 1.01 1.06 1.05 1.04 0.92 0.91 0.98 0.99 0.98 0.99 0.99 1.01 1.03 0.99 0.89 0.85 0.82 0.82 0.84
1.10 1.48 1.62 0.72 0.55 0.99 1.21 0.95 0.90 0.92 0.94 0.96 0.91 0.78 0.76 0.79 0.82 0.87 1.03 1.17 1.18 1.29 1.23 1.07 0.95 0.98 1.04 1.01 0.90 0.84 0.91 1.02 1.02 0.99 0.88 0.86 0.98 1.02 0.96 0.89 0.82 0.82 0.81 0.81
1.15 1.39 1.09 0.59 0.58 0.64 0.63 0.69 0.71 0.71 0.67 0.63 0.63 0.61 0.61 0.69 0.76 0.81 0.91 1.02 1.03 1.07 1.06 0.99 0.95 1.00 1.05 0.99 0.85 0.88 0.97 1.02 1.04 0.97 0.93 0.91 0.94 0.94 0.89 0.84 0.76 0.75 0.74 0.75
0.72 0.75 0.55 0.47 0.44 0.41 0.44 0.54 0.56 0.59 0.63 0.55 0.58 0.60 0.60 0.64 0.73 0.82 0.88 0.90 0.91 0.96 0.97 0.94 0.88 0.88 0.90 0.82 0.80 0.90 0.99 0.97 0.97 0.99 0.98 0.91 0.84 0.78 0.76 0.74 0.69 0.65 0.66 0.66
0.66 0.55 0.47 0.45 0.38 0.33 0.36 0.40 0.44 0.51 0.60 0.60 0.59 0.66 0.65 0.66 0.73 0.79 0.85 0.86 0.89 0.96 0.97 0.86 0.80 0.76 0.75 0.77 0.83 0.93 0.93 0.87 0.86 0.89 0.88 0.83 0.71 0.63 0.60 0.53 0.45 0.45 0.47 0.49
0.67 0.52 0.54 0.48 0.35 0.32 0.38 0.42 0.43 0.49 0.60 0.57 0.56 0.64 0.71 0.73 0.71 0.71 0.78 0.80 0.84 0.84 0.84 0.79 0.71 0.68 0.71 0.73 0.74 0.83 0.83 0.78 0.74 0.76 0.75 0.68 0.63 0.57 0.49 0.36 0.31 0.29 0.29 0.31
0.39 0.36 0.35 0.33 0.34 0.41 0.47 0.46 0.50 0.55 0.53 0.47 0.53 0.59 0.69 0.74 0.63 0.61 0.64 0.68 0.75 0.75 0.74 0.71 0.66 0.68 0.70 0.62 0.61 0.70 0.75 0.73 0.65 0.61 0.65 0.62 0.57 0.57 0.57 0.43 0.32 0.29 0.28 0.30
0.32 0.37 0.44 0.47 0.52 0.52 0.49 0.43 0.43 0.42 0.41 0.40 0.46 0.53 0.58 0.61 0.54 0.53 0.59 0.61 0.60 0.64 0.65 0.65 0.62 0.60 0.55 0.52 0.57 0.63 0.62 0.58 0.55 0.55 0.53 0.50 0.48 0.47 0.49 0.55 0.55 0.47 0.36 0.31
0.37 0.41 0.48 0.45 0.44 0.40 0.36 0.34 0.34 0.35 0.36 0.40 0.40 0.43 0.46 0.49 0.49 0.45 0.48 0.47 0.49 0.56 0.58 0.53 0.50 0.53 0.51 0.48 0.51 0.54 0.49 0.44 0.43 0.41 0.40 0.41 0.42 0.40 0.41 0.44 0.49 0.51 0.48 0.40
0.30 0.29 0.31 0.32 0.32 0.30 0.29 0.30 0.30 0.31 0.32 0.35 0.36 0.36 0.37 0.37 0.36 0.32 0.33 0.38 0.53 0.61 0.56 0.48 0.43 0.44 0.44 0.47 0.51 0.50 0.44 0.38 0.33 0.31 0.30 0.31 0.33 0.35 0.37 0.37 0.38 0.44 0.45 0.39
0.30 0.31 0.30 0.26 0.23 0.23 0.23 0.22 0.21 0.23 0.25 0.28 0.29 0.25 0.25 0.25 0.28 0.29 0.33 0.39 0.45 0.49 0.46 0.43 0.38 0.32 0.34 0.41 0.46 0.41 0.35 0.32 0.28 0.25 0.26 0.27 0.28 0.30 0.31 0.30 0.34 0.38 0.33 0.28
0.29 0.25 0.22 0.21 0.18 0.18 0.18 0.16 0.16 0.20 0.22 0.22 0.21 0.21 0.21 0.24 0.28 0.29 0.31 0.36 0.39 0.38 0.35 0.30 0.29 0.27 0.26 0.30 0.37 0.34 0.31 0.31 0.26 0.23 0.24 0.26 0.28 0.28 0.26 0.27 0.28 0.28 0.28 0.25
0.20 0.14 0.13 0.14 0.14 0.14 0.16 0.14 0.15 0.17 0.17 0.18 0.18 0.18 0.19 0.21 0.23 0.24 0.27 0.35 0.40 0.41 0.34 0.24 0.24 0.23 0.21 0.22 0.26 0.27 0.26 0.27 0.26 0.24 0.23 0.24 0.26 0.27 0.24 0.21 0.22 0.22 0.23 0.23
0.15 0.10 0.11 0.12 0.11 0.12 0.14 0.13 0.15 0.15 0.15 0.15 0.15 0.16 0.19 0.19 0.16 0.20 0.27 0.36 0.40 0.35 0.28 0.24 0.19 0.17 0.16 0.17 0.20 0.22 0.24 0.26 0.25 0.22 0.23 0.25 0.26 0.24 0.21 0.18 0.21 0.23 0.25 0.27
0.13 0.11 0.11 0.12 0.11 0.11 0.13 0.14 0.14 0.14 0.14 0.14 0.16 0.16 0.17 0.17 0.14 0.19 0.29 0.38 0.35 0.27 0.22 0.21 0.19 0.17 0.15 0.16 0.18 0.21 0.22 0.22 0.20 0.20 0.22 0.26 0.25 0.20 0.19 0.19 0.20 0.24 0.26 0.29
0.12 0.12 0.14 0.13 0.13 0.14 0.14 0.14 0.15 0.16 0.16 0.17 0.16 0.14 0.16 0.19 0.17 0.21 0.26 0.29 0.25 0.19 0.17 0.17 0.17 0.15 0.16 0.16 0.15 0.16 0.18 0.20 0.19 0.22 0.23 0.21 0.20 0.18 0.17 0.18 0.21 0.22 0.23 0.26
0.14 0.15 0.15 0.15 0.14 0.14 0.13 0.17 0.19 0.18 0.16 0.15 0.14 0.14 0.16 0.19 0.20 0.21 0.22 0.18 0.14 0.14 0.15 0.15 0.14 0.13 0.13 0.11 0.11 0.15 0.17 0.17 0.16 0.18 0.18 0.19 0.19 0.19 0.20 0.20 0.22 0.22 0.24 0.25
0.21 0.20 0.16 0.14 0.14 0.17 0.18 0.17 0.17 0.17 0.15 0.12 0.11 0.12 0.14 0.17 0.19 0.19 0.19 0.17 0.15 0.14 0.12 0.13 0.13 0.11 0.10 0.09 0.11 0.14 0.16 0.15 0.13 0.14 0.15 0.16 0.16 0.16 0.19 0.22 0.21 0.22 0.22 0.21
0.27 0.26 0.22 0.18 0.20 0.23 0.20 0.18 0.16 0.13 0.11 0.10 0.09 0.10 0.11 0.14 0.15 0.17 0.20 0.19 0.19 0.17 0.13 0.12 0.10 0.10 0.10 0.11 0.14 0.15 0.15 0.13 0.12 0.11 0.11 0.13 0.14 0.13 0.15 0.18 0.18 0.18 0.17 0.17
0.33 0.29 0.27 0.26 0.24 0.22 0.20 0.20 0.19 0.15 0.13 0.13 0.12 0.11 0.12 0.14 0.17 0.19 0.21 0.20 0.20 0.17 0.13 0.11 0.12 0.12 0.13 0.14 0.13 0.12 0.13 0.12 0.10 0.09 0.09 0.12 0.14 0.14 0.14 0.16 0.16 0.15 0.16 0.17
0.44 0.35 0.32 0.29 0.24 0.20 0.20 0.23 0.22 0.18 0.15 0.15 0.16 0.15 0.16 0.18 0.19 0.18 0.19 0.20 0.20 0.16 0.13 0.12 0.12 0.13 0.14 0.14 0.12 0.12 0.14 0.12 0.10 0.11 0.12 0.13 0.15 0.17 0.17 0.15 0.14 0.15 0.18 0.18